Location: Newark
(68.8333°S, 90.5833°W)
Time: 03:02:09
(UTC+00:00)

Envisat - Visible Passes

Search period start: 19 September 2020 00:00
Search period end: 29 September 2020 00:00
Orbit: 764 x 766 km, 98.1° (Epoch: 18 September)

Date Brightness Start Highest point End Pass type
(mag) Time Alt. Az. Time Alt. Az. Time Alt. Az.
19 Sep 3.1 01:15:14 10° SSE 01:20:28 86° WSW 01:25:39 10° NNW visible
19 Sep 4.6 02:54:25 10° SSE 02:59:10 38° SW 03:03:55 10° WNW visible
19 Sep 5.5 04:33:14 10° SSE 04:37:13 23° SSW 04:41:12 10° WSW visible
19 Sep 5.7 06:11:11 10° SE 06:14:57 21° S 06:18:44 10° SW visible
19 Sep 5.2 07:48:26 10° E 07:52:48 28° SSE 07:57:11 10° SSW visible
19 Sep 3.8 09:26:07 10° NE 09:31:10 56° SE 09:36:15 10° SSW visible
20 Sep 4.1 02:17:35 10° SSE 02:22:35 50° SW 02:27:34 10° WNW visible
20 Sep 5.3 03:56:36 10° SSE 04:00:51 26° SSW 04:05:05 10° W visible
20 Sep 5.7 05:34:54 10° SE 05:38:39 21° S 05:42:23 10° SW visible
20 Sep 5.5 07:12:19 10° ESE 07:16:24 24° SSE 07:20:30 10° SSW visible
20 Sep 4.4 08:49:42 10° ENE 08:54:32 42° SE 08:59:24 10° SSW visible
20 Sep 3.0 10:28:10 10° NNE 10:33:22 82° WNW 10:38:36 10° SSW visible
21 Sep 3.5 01:40:44 10° SSE 01:45:54 68° WSW 01:51:02 10° NW visible
21 Sep 5.0 03:19:51 10° SSE 03:24:25 32° SW 03:28:57 10° W visible
21 Sep 5.6 04:58:29 10° SE 05:02:20 22° SSW 05:06:11 10° WSW visible
21 Sep 5.6 06:36:11 10° ESE 06:40:03 22° SSE 06:43:56 10° SW visible
21 Sep 4.9 08:13:26 10° E 08:18:01 33° SE 08:22:36 10° SSW visible
21 Sep 3.4 09:51:24 10° NE 09:56:33 71° ESE 10:01:44 10° SSW visible
22 Sep 3.1 01:03:52 10° SSE 01:09:06 85° ENE 01:14:17 10° NNW visible
22 Sep 4.5 02:43:03 10° SSE 02:47:53 41° SW 02:52:42 10° WNW visible
22 Sep 5.5 04:21:56 10° SSE 04:25:59 24° SSW 04:30:03 10° WSW visible
22 Sep 5.7 06:00:00 10° SE 06:03:44 21° S 06:07:29 10° SW visible
22 Sep 5.3 07:37:16 10° E 07:41:34 27° SSE 07:45:51 10° SSW visible
22 Sep 4.0 09:14:51 10° NE 09:19:51 51° SE 09:24:52 10° SSW visible
23 Sep 3.9 02:06:13 10° SSE 02:11:16 54° SW 02:16:18 10° NW visible
23 Sep 5.2 03:45:15 10° SSE 03:49:36 28° SSW 03:53:56 10° W visible
23 Sep 5.7 05:23:41 10° SE 05:27:27 21° S 05:31:12 10° SW visible
23 Sep 5.5 07:01:10 10° ESE 07:05:11 23° SSE 07:09:11 10° SSW visible
23 Sep 4.6 08:38:29 10° ENE 08:43:15 39° SE 08:48:02 10° SSW visible
23 Sep 3.1 10:16:48 10° NNE 10:21:59 90° ESE 10:27:13 10° SSW visible
24 Sep 3.3 01:29:21 10° SSE 01:34:33 76° WSW 01:39:43 10° NW visible
24 Sep 4.9 03:08:30 10° SSE 03:13:09 34° SW 03:17:46 10° W visible
24 Sep 5.6 04:47:13 10° SE 04:51:07 22° SSW 04:55:01 10° WSW visible
24 Sep 5.7 06:25:02 10° ESE 06:28:50 21° S 06:32:40 10° SW visible
24 Sep 5.1 08:02:15 10° E 08:06:45 31° SE 08:11:14 10° SSW visible
24 Sep 3.6 09:40:05 10° NE 09:45:12 64° ESE 09:50:21 10° SSW visible
25 Sep 4.4 02:31:41 10° SSE 02:36:36 44° SW 02:41:28 10° WNW visible
25 Sep 5.5 04:10:37 10° SSE 04:14:46 25° SSW 04:18:54 10° WSW visible
25 Sep 5.8 05:48:48 10° SE 05:52:32 21° S 05:56:16 10° SW visible
25 Sep 5.4 07:26:07 10° E 07:30:19 26° SSE 07:34:32 10° SSW visible
25 Sep 4.2 09:03:36 10° ENE 09:08:32 47° SE 09:13:30 10° SSW visible
26 Sep 3.8 01:54:50 10° SSE 01:59:57 60° SW 02:05:02 10° NW visible
26 Sep 5.2 03:33:55 10° SSE 03:38:21 29° SSW 03:42:46 10° W visible
26 Sep 5.7 05:12:26 10° SE 05:16:13 21° S 05:20:01 10° SW visible
26 Sep 5.6 06:50:01 10° ESE 06:53:57 23° SSE 06:57:54 10° SSW visible
26 Sep 4.8 08:27:17 10° ENE 08:31:58 36° SE 08:36:40 10° SSW visible
26 Sep 3.2 10:05:27 10° NNE 10:10:37 81° ESE 10:15:51 10° SSW visible
27 Sep 3.2 01:17:58 10° SSE 01:23:11 83° WSW 01:28:22 10° NNW visible
27 Sep 4.8 02:57:08 10° SSE 03:01:52 37° SW 03:06:34 10° WNW visible
27 Sep 5.6 04:35:55 10° SSE 04:39:54 23° SSW 04:43:51 10° WSW visible
27 Sep 5.8 06:13:51 10° SE 06:17:38 21° S 06:21:24 10° SW visible
27 Sep 5.2 07:51:05 10° E 07:55:29 29° SSE 07:59:54 10° SSW visible
27 Sep 3.8 09:28:48 10° NE 09:33:52 58° SE 09:38:58 10° SSW visible
28 Sep 4.2 02:20:19 10° SSE 02:25:17 48° SW 02:30:14 10° WNW visible
28 Sep 5.4 03:59:18 10° SSE 04:03:31 26° SSW 04:07:44 10° W visible
28 Sep 5.8 05:37:35 10° SE 05:41:19 21° S 05:45:03 10° SW visible
28 Sep 5.5 07:14:58 10° ESE 07:19:04 25° SSE 07:23:12 10° SSW visible
28 Sep 4.4 08:52:22 10° ENE 08:57:14 43° SE 09:02:07 10° SSW visible
